When you browse on this site, cookies collect data to enhance your experience and personalize the content and advertising you see.
Visit our Privacy Policy to learn more. By continuing to use the site, you agree to this use of cookies and data.
  • In Deutschland
  • Länderverzeichnis
  • Für 7 Tage
  • Wassertemperatur
  • Satellitenkarten
  • Wetterkarte
  • Widgets
  • user-avatar
    Anmelden

    Stündliche Wetter Naumivs'ke

    Heute, 18 November, Sonntag

    Zeit Temperatur Niederschläge Wind Luftdruck Luftfeuchtigkeit
    00:00 -3°C° 0 mm 1 m/S 763 mmHg 55%
    01:00 -3°C° 0 mm 1 m/S 762 mmHg 55%
    02:00 -4°C° 0 mm 1 m/S 762 mmHg 59%
    03:00 -4°C° 0 mm 1 m/S 761 mmHg 61%
    04:00 -4°C° 0 mm 1 m/S 760 mmHg 63%
    05:00 -4°C° 0 mm 1 m/S 760 mmHg 65%
    06:00 -6°C° 0 mm 2 m/S 759 mmHg 66%
    07:00 -6°C° 0 mm 2 m/S 759 mmHg 68%
    08:00 -7°C° 0 mm 2 m/S 759 mmHg 70%
    09:00 -5°C° 0 mm 2 m/S 758 mmHg 67%
    10:00 -4°C° 0 mm 2 m/S 758 mmHg 64%
    11:00 -3°C° 0 mm 2 m/S 757 mmHg 61%
    12:00 -3°C° 0 mm 2 m/S 757 mmHg 63%
    13:00 -2°C° 0 mm 2 m/S 757 mmHg 65%
    14:00 0°C° 0 mm 1 m/S 756 mmHg 71%
    15:00 -1°C° 0 mm 1 m/S 756 mmHg 73%
    16:00 -2°C° 0 mm 1 m/S 756 mmHg 75%
    17:00 -3°C° 0 mm 1 m/S 756 mmHg 77%
    18:00 -3°C° 0 mm 1 m/S 756 mmHg 77%
    19:00 -3°C° 0 mm 1 m/S 756 mmHg 76%
    20:00 -4°C° 0 mm 1 m/S 756 mmHg 76%
    21:00 -4°C° 0 mm 1 m/S 756 mmHg 76%
    22:00 -4°C° 0 mm 1 m/S 757 mmHg 76%
    23:00 -4°C° 0 mm 1 m/S 757 mmHg 76%

    Morgen, 19 November, Montag

    Zeit Temperatur Niederschläge Wind Luftdruck Luftfeuchtigkeit
    00:00 -4°C° 0 mm 1 m/S 757 mmHg 76%
    01:00 -4°C° 0 mm 1 m/S 757 mmHg 76%
    02:00 -4°C° 0 mm 1 m/S 757 mmHg 77%
    03:00 -4°C° 0 mm 1 m/S 757 mmHg 77%
    04:00 -6°C° 0 mm 2 m/S 757 mmHg 76%
    05:00 -6°C° 0 mm 2 m/S 757 mmHg 76%
    06:00 -6°C° 0 mm 2 m/S 757 mmHg 76%
    07:00 -6°C° 0 mm 2 m/S 757 mmHg 75%
    08:00 -6°C° 0 mm 2 m/S 758 mmHg 75%
    09:00 -5°C° 0 mm 2 m/S 758 mmHg 71%
    10:00 -5°C° 0 mm 3 m/S 758 mmHg 68%
    11:00 -2°C° 0 mm 3 m/S 758 mmHg 64%
    12:00 -2°C° 0 mm 3 m/S 758 mmHg 65%
    13:00 -2°C° 0 mm 3 m/S 758 mmHg 65%
    14:00 -1°C° 0 mm 3 m/S 758 mmHg 66%
    15:00 -2°C° 0 mm 3 m/S 757 mmHg 68%
    16:00 -4°C° 0 mm 3 m/S 757 mmHg 69%
    17:00 -4°C° 0 mm 3 m/S 757 mmHg 71%
    18:00 -4°C° 0 mm 4 m/S 757 mmHg 69%
    19:00 -4°C° 0 mm 4 m/S 757 mmHg 68%
    20:00 -4°C° 0 mm 4 m/S 757 mmHg 66%
    21:00 -4°C° 0 mm 4 m/S 757 mmHg 67%
    22:00 -4°C° 0 mm 4 m/S 757 mmHg 67%
    23:00 -4°C° 0 mm 4 m/S 757 mmHg 68%

    übermorgen, 20 November, Dienstag

    Zeit Temperatur Niederschläge Wind Luftdruck Luftfeuchtigkeit
    00:00 -4°C° 0 mm 4 m/S 757 mmHg 70%
    01:00 -4°C° 0 mm 4 m/S 757 mmHg 72%
    02:00 -4°C° 0 mm 4 m/S 757 mmHg 74%
    03:00 -4°C° 0 mm 4 m/S 757 mmHg 77%
    04:00 -5°C° 0 mm 4 m/S 757 mmHg 80%
    05:00 -6°C° 0 mm 5 m/S 757 mmHg 83%
    06:00 -5°C° 0 mm 5 m/S 757 mmHg 85%
    07:00 -5°C° 0 mm 5 m/S 757 mmHg 87%
    08:00 -5°C° 0 mm 5 m/S 758 mmHg 89%
    09:00 -4°C° 0 mm 5 m/S 758 mmHg 87%
    10:00 -4°C° 0 mm 5 m/S 757 mmHg 85%
    11:00 -2°C° 0 mm 5 m/S 757 mmHg 83%
    12:00 -2°C° 0 mm 5 m/S 758 mmHg 83%
    13:00 -2°C° 0 mm 4 m/S 758 mmHg 83%
    14:00 -2°C° 0 mm 4 m/S 758 mmHg 83%
    15:00 -2°C° 0 mm 4 m/S 758 mmHg 84%
    16:00 -3°C° 0 mm 4 m/S 758 mmHg 86%
    17:00 -3°C° 0 mm 4 m/S 758 mmHg 87%
    18:00 -2°C° 0 mm 3 m/S 758 mmHg 88%
    19:00 -4°C° 0 mm 3 m/S 758 mmHg 89%
    20:00 -4°C° 0 mm 3 m/S 758 mmHg 89%
    21:00 -3°C° 0 mm 2 m/S 758 mmHg 90%
    22:00 -4°C° 0 mm 2 m/S 758 mmHg 90%
    23:00 -4°C° 0 mm 2 m/S 758 mmHg 91%

    21 November, Mittwoch

    Zeit Temperatur Niederschläge Wind Luftdruck Luftfeuchtigkeit
    00:00 -4°C° 0 mm 2 m/S 758 mmHg 91%
    01:00 -4°C° 0 mm 2 m/S 758 mmHg 91%
    02:00 -4°C° 0 mm 2 m/S 759 mmHg 91%
    03:00 -4°C° 0 mm 2 m/S 758 mmHg 92%
    04:00 -4°C° 0 mm 2 m/S 758 mmHg 92%
    05:00 -4°C° 0 mm 2 m/S 758 mmHg 92%
    06:00 -4°C° 0 mm 2 m/S 758 mmHg 92%
    07:00 -4°C° 0 mm 2 m/S 758 mmHg 92%
    08:00 -4°C° 0 mm 2 m/S 758 mmHg 92%
    09:00 -3°C° 0 mm 2 m/S 758 mmHg 88%
    10:00 -2°C° 0 mm 2 m/S 758 mmHg 84%
    11:00 -1°C° 0 mm 3 m/S 758 mmHg 79%
    12:00 -1°C° 0 mm 2 m/S 758 mmHg 79%
    13:00 -1°C° 0 mm 2 m/S 758 mmHg 78%
    14:00 -1°C° 0 mm 2 m/S 758 mmHg 77%
    15:00 -2°C° 0 mm 2 m/S 758 mmHg 81%
    16:00 -3°C° 0 mm 2 m/S 758 mmHg 85%
    17:00 -4°C° 0 mm 2 m/S 758 mmHg 89%
    18:00 -4°C° 0 mm 2 m/S 758 mmHg 90%
    19:00 -4°C° 0 mm 2 m/S 758 mmHg 90%
    20:00 -5°C° 0 mm 2 m/S 758 mmHg 91%
    21:00 -5°C° 0 mm 2 m/S 758 mmHg 91%
    22:00 -5°C° 0 mm 2 m/S 758 mmHg 92%
    23:00 -5°C° 0 mm 2 m/S 758 mmHg 92%

    22 November, Donnerstag

    Zeit Temperatur Niederschläge Wind Luftdruck Luftfeuchtigkeit
    00:00 -5°C° 0 mm 2 m/S 758 mmHg 93%
    01:00 -5°C° 0 mm 2 m/S 758 mmHg 93%
    02:00 -6°C° 0 mm 2 m/S 758 mmHg 94%
    03:00 -5°C° 0 mm 2 m/S 758 mmHg 94%
    04:00 -5°C° 0 mm 2 m/S 758 mmHg 93%
    05:00 -5°C° 0 mm 2 m/S 758 mmHg 93%
    06:00 -5°C° 0 mm 2 m/S 758 mmHg 92%
    07:00 -5°C° 0 mm 2 m/S 759 mmHg 90%
    08:00 -4°C° 0 mm 2 m/S 759 mmHg 88%
    09:00 -3°C° 0 mm 2 m/S 759 mmHg 83%
    10:00 -2°C° 0 mm 2 m/S 759 mmHg 79%
    11:00 -2°C° 0 mm 3 m/S 759 mmHg 74%
    12:00 -1°C° 0 mm 3 m/S 759 mmHg 74%
    13:00 -1°C° 0 mm 3 m/S 759 mmHg 74%
    14:00 -1°C° 0 mm 3 m/S 759 mmHg 75%
    15:00 -2°C° 0 mm 3 m/S 759 mmHg 79%
    16:00 -4°C° 0 mm 3 m/S 759 mmHg 84%
    17:00 -5°C° 0 mm 3 m/S 758 mmHg 89%
    18:00 -5°C° 0 mm 3 m/S 759 mmHg 90%
    19:00 -5°C° 0 mm 3 m/S 759 mmHg 90%
    20:00 -6°C° 0 mm 3 m/S 759 mmHg 91%
    21:00 -6°C° 0 mm 3 m/S 759 mmHg 92%
    22:00 -6°C° 0 mm 3 m/S 759 mmHg 93%
    23:00 -6°C° 0 mm 3 m/S 759 mmHg 93%

    23 November, Freitag

    Zeit Temperatur Niederschläge Wind Luftdruck Luftfeuchtigkeit
    00:00 -6°C° 0 mm 3 m/S 760 mmHg 93%
    01:00 -6°C° 0 mm 3 m/S 760 mmHg 92%
    02:00 -6°C° 0 mm 3 m/S 760 mmHg 91%
    03:00 -6°C° 0 mm 3 m/S 760 mmHg 90%
    04:00 -5°C° 0 mm 2 m/S 761 mmHg 90%
    05:00 -4°C° 0 mm 2 m/S 761 mmHg 90%
    06:00 -5°C° 0 mm 2 m/S 761 mmHg 90%
    07:00 -5°C° 0 mm 2 m/S 762 mmHg 91%
    08:00 -5°C° 0 mm 2 m/S 762 mmHg 92%
    09:00 -2°C° 0 mm 1 m/S 762 mmHg 89%
    10:00 -1°C° 0 mm 1 m/S 763 mmHg 86%
    11:00 0°C° 0 mm 1 m/S 763 mmHg 83%
    12:00 0°C° 0 mm 1 m/S 763 mmHg 82%
    13:00 0°C° 0 mm 1 m/S 763 mmHg 82%
    14:00 +1°C° 0 mm 1 m/S 763 mmHg 82%
    15:00 0°C° 0 mm 1 m/S 762 mmHg 85%
    16:00 -1°C° 0 mm 1 m/S 762 mmHg 88%
    17:00 -2°C° 0 mm 1 m/S 762 mmHg 91%
    18:00 -2°C° 0 mm 1 m/S 762 mmHg 92%
    19:00 -2°C° 0 mm 1 m/S 762 mmHg 92%
    20:00 -3°C° 0 mm 1 m/S 762 mmHg 93%
    21:00 -5°C° 0 mm 2 m/S 762 mmHg 93%
    22:00 -5°C° 0 mm 2 m/S 761 mmHg 93%
    23:00 -5°C° 0 mm 2 m/S 761 mmHg 94%
    Mehr zeigen